Wind_Speed
10 10 10 10 10 10 10 9 9 10 11 12 12 12 14 15 13 11 10 10 13 13 16 13 15 15 16 25 29 24 17 19 24 23 19 15 19 19 20 23 10 16 3 9 18
10 10 10 10 10 9 9 9 9 10 12 12 12 13 15 17 11 5 8 7 3 5 6 11 17 18 24 22 29 25 17 28 23 22 17 14 16 20 24 16 17 20 6 5 10
10 10 10 10 10 9 9 8 9 10 12 13 14 17 17 11 6 6 4 11 13 11 10 12 14 20 27 28 29 32 28 26 27 30 26 16 23 25 25 18 26 21 16 10 10
11 11 10 10 10 10 10 8 9 11 13 15 17 17 12 3 2 2 14 13 14 11 8 12 14 21 25 27 33 27 38 37 36 37 21 18 25 28 28 24 26 28 23 24 14
13 13 12 11 11 10 10 10 11 13 13 14 14 13 6 6 4 8 11 13 12 8 9 12 16 20 24 25 29 32 31 38 37 29 33 26 26 28 32 30 28 28 18 13 17
14 13 12 12 12 11 10 11 12 14 14 15 11 9 6 11 4 8 11 11 9 10 9 10 14 16 24 25 28 31 35 38 37 34 34 31 29 28 37 34 33 32 31 28 27
16 15 14 14 14 12 11 11 13 15 16 8 9 4 8 4 6 9 9 11 12 10 11 9 12 17 12 17 30 31 28 28 28 34 35 32 28 30 43 35 36 37 36 32 32
16 16 16 15 14 13 12 12 14 15 9 7 3 2 7 2 7 10 12 12 9 11 12 12 13 18 24 25 32 19 21 26 35 28 30 31 34 34 40 39 40 39 39 34 36
18 18 17 16 14 12 10 13 13 11 4 3 2 4 5 6 7 12 11 12 14 14 13 13 14 19 17 18 19 21 26 30 32 29 29 28 35 34 46 42 36 42 42 40 40
22 21 19 16 13 12 10 11 11 7 5 4 7 7 6 7 14 13 10 12 13 12 13 15 17 13 14 15 21 24 26 29 30 27 29 31 34 33 40 40 35 45 46 39 44
25 22 21 16 12 10 13 10 5 6 10 14 11 10 9 12 12 10 8 12 9 12 12 14 14 14 17 16 22 24 28 32 29 25 28 29 31 36 32 35 32 36 32 45 48
26 23 21 14 8 7 10 8 6 8 12 13 14 12 11 9 11 11 8 13 13 14 15 13 16 17 18 15 20 24 26 30 29 30 23 22 27 34 27 30 36 37 40 40 35
27 24 17 10 5 5 3 4 6 11 8 3 6 7 6 7 14 14 11 12 14 17 14 16 17 21 17 17 19 20 23 25 27 24 28 25 29 30 26 30 33 39 42 42 40
27 23 15 4 2 5 1 8 10 8 6 10 9 3 6 9 18 8 13 11 14 17 19 16 15 16 16 21 17 21 20 21 26 21 21 28 21 27 26 25 27 33 32 35 36
26 19 10 3 2 5 7 10 9 2 5 5 4 3 7 11 10 12 8 14 18 18 17 19 20 20 22 21 17 22 19 21 23 25 24 30 20 22 22 27 27 27 39 42 41
23 14 2 4 3 4 8 9 2 7 1 4 3 5 11 14 7 11 11 14 21 17 18 20 18 21 19 20 18 15 17 20 21 20 22 26 26 24 22 23 21 20 27 31 32
22 10 4 1 4 8 7 6 6 6 4 1 6 11 15 14 10 6 11 14 13 10 15 20 16 8 16 16 18 16 14 12 16 16 19 23 25 21 24 29 25 22 29 15 20
23 6 6 4 6 7 6 9 8 7 10 10 10 16 16 3 8 10 14 13 11 8 13 9 12 4 12 9 20 17 17 13 17 16 19 26 26 21 24 23 19 23 19 17 14
16 5 4 5 6 7 12 7 5 8 8 10 14 13 8 8 10 15 11 12 6 11 12 13 9 20 18 9 7 18 17 21 21 25 18 20 29 31 30 19 14 16 11 8 13
19 6 5 5 6 7 9 9 9 2 10 11 14 9 14 17 13 12 11 7 7 11 11 10 18 18 15 10 17 16 15 13 6 19 23 18 22 19 30 19 15 10 3 11 9
9 7 2 2 6 12 6 10 10 7 11 7 11 16 17 15 15 17 10 14 9 9 14 16 17 19 17 15 16 1 6 8 8 12 12 16 12 15 27 29 19 5 3 5 7
7 4 1 6 8 6 7 6 9 9 9 8 10 15 14 15 17 19 20 14 9 14 15 18 14 16 22 23 13 13 13 19 4 12 18 11 17 16 13 21 13 4 4 7 3
12 8 3 3 3 7 12 13 11 8 11 7 8 15 14 16 13 13 18 19 17 13 7 11 6 10 17 16 16 7 9 13 8 9 15 8 9 18 23 17 11 9 13 15 8
7 4 4 2 4 7 12 11 9 7 10 8 9 15 15 16 15 14 21 20 12 15 20 13 14 18 17 20 8 5 19 13 11 6 14 18 17 20 4 15 12 9 16 14 12
4 4 4 4 8 10 12 14 11 10 5 7 10 11 12 14 20 23 20 23 18 22 20 4 11 19 24 28 23 17 20 13 17 19 21 20 13 14 25 29 9 10 14 12 12
9 7 13 17 10 6 10 11 11 9 16 17 15 16 14 16 19 28 27 24 15 5 6 10 8 15 21 23 25 23 22 18 19 25 24 23 20 14 22 25 16 13 13 13 8
8 7 5 10 6 7 5 11 14 18 13 13 15 17 20 20 25 33 35 36 23 12 6 3 6 8 19 20 22 19 22 20 20 23 22 22 20 16 17 18 15 16 14 14 7
Wind_Direction
1 358 354 350 347 343 341 344 348 351 350 348 343 337 333 324 309 313 273 243 236 272 242 253 255 244 237 238 228 229 245 249 249 251 249 258 245 242 248 242 220 199 322 116 147
358 355 351 348 349 349 349 349 353 352 354 348 344 342 335 330 319 267 243 262 269 323 317 265 250 236 230 234 233 230 233 237 249 257 256 256 261 259 239 229 244 219 129 155 171
353 349 345 346 346 344 344 341 340 345 347 342 342 338 334 327 309 98 250 324 322 303 288 267 256 247 236 231 227 236 240 246 244 250 257 252 252 248 262 224 225 205 200 190 174
344 340 338 338 340 337 336 332 331 338 339 335 337 342 356 72 341 223 320 334 345 348 287 263 249 244 242 234 233 230 242 247 258 270 262 241 250 260 245 244 241 224 208 200 191
339 336 334 332 333 329 328 325 325 333 334 330 333 343 356 248 45 319 328 334 336 318 283 260 256 246 243 245 241 240 244 248 254 253 265 265 242 252 259 244 241 249 245 228 225
341 334 329 326 328 323 316 316 319 325 328 328 333 338 329 260 326 322 319 324 317 301 293 264 256 259 272 259 248 252 250 254 253 253 250 247 249 251 249 250 246 242 248 238 241
350 343 333 328 327 326 318 315 317 320 323 324 326 326 280 16 334 324 328 319 307 291 282 283 274 261 260 254 256 261 266 267 258 242 244 245 245 242 248 249 246 244 243 245 244
350 344 335 328 327 324 318 316 316 316 321 323 327 277 281 282 341 335 320 313 311 292 273 272 277 270 262 263 282 276 256 248 243 243 244 234 253 245 247 246 245 247 247 243 245
347 342 335 329 329 328 325 327 323 321 324 319 351 261 237 284 335 325 319 315 311 302 272 265 273 269 256 242 254 247 247 240 253 239 242 236 246 247 251 255 247 245 247 245 251
346 341 339 332 331 334 339 343 329 327 320 306 260 255 227 320 322 321 316 311 308 304 279 247 251 244 234 237 240 244 242 245 256 252 226 242 238 244 246 248 251 256 259 250 247
344 341 337 332 333 347 358 316 307 218 243 285 305 283 299 312 317 320 309 310 281 278 267 270 243 256 265 255 256 267 275 276 269 252 239 254 240 247 241 241 249 253 256 240 249
343 340 338 331 330 1 18 3 6 328 299 277 262 258 278 292 293 316 303 301 309 294 297 270 245 256 257 276 282 275 270 262 266 272 276 263 255 256 252 242 239 244 250 253 257
345 341 341 334 333 9 341 4 336 325 269 198 226 243 277 278 289 302 298 300 292 296 283 278 289 302 287 263 271 269 265 272 273 267 264 256 262 262 251 253 253 251 251 252 251
344 342 342 346 63 333 261 332 331 313 273 134 205 169 268 301 266 295 292 268 290 290 294 284 282 275 282 278 261 272 274 264 266 266 257 248 257 244 248 246 246 249 246 251 253
343 341 347 155 323 319 309 323 312 285 267 110 155 341 277 271 295 289 296 278 284 293 295 288 290 282 274 266 264 271 275 266 260 255 258 251 257 254 248 238 240 237 240 242 244
341 338 31 352 329 305 325 319 326 231 345 165 268 279 295 305 282 289 286 271 266 264 265 269 272 298 266 278 267 281 283 268 265 253 249 250 248 247 243 258 265 254 253 248 247
340 323 231 230 315 318 315 287 250 285 124 89 322 312 310 293 320 318 303 297 285 299 298 310 282 291 264 255 252 253 259 261 249 242 249 256 251 243 250 244 263 247 242 248 257
341 309 245 236 299 316 309 258 279 358 316 356 308 305 277 305 303 289 297 293 314 303 305 309 301 35 287 276 275 258 250 257 264 254 250 230 248 252 249 259 272 296 267 261 257
353 341 247 250 288 312 282 264 293 347 352 324 308 296 316 315 330 305 298 309 328 320 313 302 301 309 314 292 290 275 251 256 267 270 273 278 278 221 251 226 227 238 219 248 267
341 297 229 257 287 290 264 278 291 329 310 304 301 291 311 325 316 313 312 320 297 296 300 296 299 303 309 292 255 233 258 243 224 255 260 260 261 222 215 227 217 196 240 273 287
340 278 154 281 287 257 281 304 328 337 309 296 299 306 308 307 310 306 286 290 301 315 309 295 286 296 285 263 274 22 280 275 298 248 266 258 298 230 202 205 220 107 327 344 290
340 273 358 341 264 213 264 3 309 296 292 283 281 289 296 304 307 295 292 284 286 302 299 297 304 277 276 287 228 271 200 218 218 262 242 282 271 298 101 127 111 60 7 19 39
316 292 315 356 302 329 308 315 291 284 304 301 296 300 308 297 300 288 292 305 310 306 300 327 271 287 279 256 227 266 234 230 258 262 264 266 269 322 113 108 89 25 346 44 83
311 301 123 351 282 304 332 317 329 320 298 326 301 301 286 286 285 281 277 287 347 315 315 318 273 264 270 293 96 303 283 268 234 266 271 259 266 294 296 135 107 37 346 5 55
329 34 335 312 330 326 306 293 296 300 311 283 284 272 306 304 304 295 300 305 291 268 254 254 260 268 270 275 275 265 263 257 267 261 249 270 281 263 287 295 13 8 328 331 71
342 350 341 297 308 346 300 305 317 326 323 304 285 311 320 288 278 287 291 295 299 286 251 211 244 257 266 269 273 269 265 254 259 271 274 275 269 258 258 269 298 315 325 311 47
347 314 311 308 290 291 313 322 323 319 304 315 316 301 293 298 303 296 294 285 280 253 204 233 221 239 257 258 257 262 248 246 248 261 264 267 273 270 268 275 284 287 291 295 325
Height
1528 1525 1523 1521 1519 1517 1514 1512 1510 1509 1507 1505 1503 1500 1497 1494 1491 1491 1493 1489 1488 1488 1488 1490 1492 1493 1494 1493 1491 1489 1483 1474 1464 1464 1458 1455 1458 1456 1454 1453 1451 1456 1457 1452 1458
1527 1525 1523 1521 1518 1516 1514 1511 1509 1507 1506 1503 1501 1499 1496 1492 1489 1491 1490 1489 1489 1489 1488 1489 1490 1490 1488 1487 1485 1482 1470 1462 1457 1455 1453 1453 1458 1456 1453 1452 1452 1454 1458 1462 1462
1527 1524 1523 1520 1518 1515 1513 1511 1509 1506 1504 1502 1499 1497 1493 1490 1490 1489 1489 1489 1487 1486 1486 1489 1488 1485 1481 1481 1477 1474 1459 1456 1451 1455 1454 1456 1460 1458 1450 1447 1451 1451 1458 1462 1462
1526 1524 1522 1520 1517 1515 1512 1510 1508 1505 1503 1500 1497 1495 1491 1488 1483 1488 1487 1485 1484 1483 1485 1486 1484 1481 1476 1469 1471 1470 1459 1458 1454 1452 1450 1451 1458 1453 1450 1449 1449 1449 1452 1457 1462
1526 1523 1521 1518 1516 1514 1511 1509 1506 1504 1502 1500 1497 1494 1491 1490 1489 1489 1486 1486 1486 1486 1485 1483 1481 1477 1468 1466 1466 1455 1452 1453 1453 1456 1454 1451 1453 1453 1449 1447 1449 1447 1448 1454 1459
1525 1522 1520 1518 1515 1513 1510 1507 1505 1503 1501 1498 1496 1494 1493 1488 1490 1489 1487 1486 1485 1485 1483 1482 1479 1474 1467 1462 1459 1452 1450 1448 1447 1450 1450 1450 1447 1454 1445 1448 1446 1447 1448 1451 1456
1524 1521 1518 1515 1513 1510 1508 1505 1503 1501 1499 1497 1495 1492 1494 1490 1490 1489 1487 1486 1484 1483 1481 1479 1478 1477 1469 1464 1460 1455 1452 1445 1439 1439 1439 1443 1443 1444 1442 1445 1442 1443 1445 1447 1450
1524 1520 1517 1513 1511 1508 1506 1504 1501 1499 1497 1496 1494 1493 1489 1489 1489 1487 1486 1484 1482 1480 1479 1478 1477 1474 1470 1467 1458 1455 1448 1443 1424 1434 1431 1442 1434 1428 1436 1437 1436 1437 1437 1438 1441
1523 1520 1516 1512 1509 1507 1504 1502 1499 1497 1496 1494 1494 1495 1485 1487 1486 1486 1484 1482 1480 1477 1475 1476 1475 1471 1467 1463 1460 1449 1439 1428 1422 1424 1429 1430 1424 1419 1429 1427 1425 1429 1429 1431 1433
1522 1518 1514 1510 1507 1504 1502 1500 1497 1495 1495 1493 1494 1495 1486 1486 1485 1483 1482 1480 1477 1475 1473 1472 1469 1464 1455 1455 1443 1433 1429 1423 1421 1412 1418 1420 1413 1411 1418 1420 1422 1424 1422 1422 1424
1519 1515 1511 1508 1505 1503 1501 1499 1498 1497 1495 1490 1488 1487 1485 1485 1484 1481 1479 1477 1473 1471 1465 1460 1457 1450 1441 1437 1435 1435 1431 1419 1404 1401 1410 1409 1404 1398 1405 1412 1414 1413 1412 1414 1419
1518 1513 1509 1505 1504 1503 1502 1502 1503 1503 1494 1487 1486 1486 1486 1485 1482 1478 1478 1476 1470 1465 1459 1455 1451 1446 1444 1442 1441 1438 1433 1422 1417 1409 1406 1400 1400 1392 1394 1396 1402 1407 1409 1409 1411
1515 1511 1507 1504 1503 1503 1504 1503 1502 1501 1493 1480 1483 1483 1482 1483 1478 1476 1477 1473 1469 1462 1456 1452 1446 1441 1441 1441 1443 1437 1434 1427 1422 1415 1410 1407 1405 1393 1390 1394 1396 1399 1401 1402 1404
1513 1508 1505 1504 1504 1504 1503 1502 1501 1499 1483 1475 1478 1479 1481 1478 1470 1475 1472 1473 1467 1460 1455 1449 1446 1443 1441 1438 1437 1435 1428 1427 1426 1425 1420 1402 1406 1393 1389 1388 1392 1391 1393 1395 1397
1512 1507 1504 1502 1503 1503 1504 1501 1499 1498 1473 1475 1474 1479 1477 1475 1473 1469 1469 1468 1462 1457 1456 1446 1440 1438 1435 1430 1430 1428 1424 1422 1421 1420 1413 1408 1402 1383 1379 1380 1380 1381 1384 1385 1389
1510 1506 1505 1505 1504 1504 1502 1500 1499 1488 1474 1470 1474 1472 1470 1466 1465 1463 1464 1462 1457 1451 1445 1439 1436 1440 1428 1425 1424 1424 1423 1420 1415 1413 1408 1401 1398 1384 1380 1378 1371 1372 1373 1376 1378
1508 1504 1504 1504 1504 1503 1502 1500 1488 1472 1472 1467 1469 1469 1467 1459 1461 1458 1457 1452 1448 1451 1445 1437 1431 1432 1431 1427 1422 1422 1425 1428 1424 1416 1410 1400 1394 1382 1375 1374 1365 1364 1364 1365 1369
1505 1502 1502 1504 1504 1502 1501 1492 1485 1469 1468 1469 1471 1468 1459 1457 1457 1453 1451 1445 1442 1443 1446 1449 1447 1446 1431 1426 1421 1420 1421 1423 1429 1414 1400 1388 1394 1381 1368 1363 1363 1365 1365 1366 1367
1504 1502 1503 1503 1501 1501 1498 1481 1473 1470 1476 1476 1471 1459 1453 1451 1453 1450 1448 1444 1446 1445 1450 1448 1444 1433 1424 1422 1428 1419 1418 1415 1421 1417 1413 1407 1387 1369 1365 1360 1363 1364 1362 1364 1365
1502 1502 1500 1499 1500 1500 1492 1483 1475 1479 1481 1478 1475 1466 1461 1457 1458 1450 1447 1444 1446 1445 1444 1445 1443 1431 1422 1423 1417 1417 1414 1426 1442 1421 1413 1393 1371 1355 1359 1358 1357 1356 1363 1363 1360
1501 1499 1497 1498 1498 1495 1488 1473 1476 1481 1484 1480 1474 1470 1466 1463 1459 1456 1451 1445 1446 1444 1444 1440 1436 1428 1420 1418 1417 1435 1430 1425 1421 1419 1411 1380 1369 1332 1340 1350 1356 1356 1363 1358 1363
1502 1494 1497 1496 1495 1488 1481 1480 1486 1481 1481 1479 1479 1474 1470 1465 1464 1458 1454 1445 1450 1448 1445 1439 1437 1430 1418 1405 1404 1403 1414 1421 1441 1421 1388 1388 1376 1351 1334 1330 1355 1363 1363 1356 1363
1504 1498 1497 1496 1493 1486 1482 1479 1478 1479 1478 1477 1478 1474 1473 1470 1469 1456 1447 1446 1448 1450 1450 1450 1439 1434 1413 1397 1395 1402 1403 1404 1406 1408 1409 1415 1391 1365 1340 1353 1365 1370 1364 1357 1360
1505 1494 1493 1496 1493 1491 1483 1480 1478 1478 1477 1478 1479 1477 1471 1463 1456 1452 1445 1444 1454 1459 1457 1458 1446 1440 1424 1399 1433 1439 1426 1398 1403 1414 1397 1394 1387 1383 1361 1354 1362 1371 1368 1357 1359
1508 1501 1505 1490 1491 1493 1492 1482 1478 1476 1476 1478 1473 1470 1465 1465 1457 1450 1444 1442 1446 1451 1454 1457 1445 1438 1424 1409 1403 1401 1396 1394 1392 1385 1388 1383 1386 1396 1386 1369 1360 1369 1368 1360 1360
1513 1512 1508 1503 1496 1496 1492 1482 1476 1475 1476 1472 1471 1466 1469 1470 1466 1452 1445 1440 1442 1443 1443 1444 1437 1434 1424 1412 1400 1393 1388 1386 1386 1372 1371 1370 1374 1377 1374 1367 1364 1369 1369 1363 1360
1518 1517 1515 1505 1492 1490 1491 1492 1489 1489 1477 1472 1471 1468 1462 1454 1449 1441 1436 1429 1429 1433 1440 1440 1435 1425 1410 1402 1394 1391 1378 1377 1376 1366 1367 1368 1364 1364 1366 1364 1362 1365 1366 1365 1360